Location: *
(29.1167°S, 130.0000°E)
Time: 07:01:11
(UTC+00:00)

NOSS 3-1 (A) - Pass Details

Date: 21 July 2019
Orbit: 774 x 1439 km, 63.4° (Epoch: 18 August)

Event Time Altitude Azimuth Distance (km) Brightness Sun altitude
Rises 10:01:23 0° 206° (SSW) 3,652 6.7 -17.1°
Reaches altitude 10° 10:04:07 10° 203° (SSW) 2,611 5.9 -17.7°
Maximum altitude 10:10:02 68° 120° (ESE) 892 3.1 -19.0°
Drops below altitude 10° 10:15:18 10° 37° (NE) 2,337 5.3 -20.1°
Enters shadow 10:16:10 - 35° (NE) 2,667 5.6 -20.3°
